Home > Weather > Mashhad > Past weeks

Flag for Iran Past Weather in Mashhad, Iran — Yesterday and Last 2 Weeks

Now
75 °F

Clear.


Feels Like: 76 °F
Forecast: 70 / 100 °F
Wind: 7 mph from Southwest

Location: Mashhad Airport

Current Time: Jul 24, 2016 at 7:27:51 AM

Latest Report: Jul 24, 2016 at 7:00 AM


Visibility: 10 mi

Pressure: 29.83 "Hg (26.65 "Hg at 981m altitude)

Humidity: 24%

Dew Point: 36 °F

Location of MashhadLocation

Past Weather in Mashhad — Graph

°F

Mashhad Temperature Yesterday

Maximum temperature yesterday: 97 °F (at 1:30 PM)
Minimum temperature yesterday: 72 °F (at 6:00 AM)
Average temperature yesterday: 85 °F

High & Low Weather Summary for the Past Weeks

 TemperatureHumidityPressure
High104 °F (Jul 20, 2:30 PM)78% (Jul 14, 1:00 AM)30.09 "Hg (Jul 14, 1:00 AM)
Low66 °F (Jul 15, 5:00 AM)6% (Jul 20, 5:30 PM)29.74 "Hg (Jul 19, 5:30 PM)
Average85 °F24%29.91 "Hg
* Reported Jul 9 5:30 AM — Jul 24 6:00 AM, Mashhad, Weather by CustomWeather, © 2016

Note: Actual official high and low records may vary slightly from our data, if they occured in-between our weather recording intervals... More about our weather records

Advertising

Mashhad Weather History for the Previous 24 Hours

Scroll right to see more
 ConditionsComfort  
Time TempWeatherWind HumidityBarometerVisibility
6:00 AM
Sun, Jul 24
70 °FClear.5 mph35%29.83 "Hg10 mi
5:30 AM70 °FClear.5 mph35%29.83 "Hg10 mi
5:00 AM70 °FClear.5 mph35%29.83 "Hg10 mi
4:30 AM72 °FClear.5 mph31%29.83 "Hg10 mi
4:00 AM72 °FClear.5 mph31%29.83 "Hg10 mi
3:30 AM72 °FClear.5 mph31%29.83 "Hg10 mi
3:00 AM73 °FClear.7 mph25%29.83 "Hg10 mi
2:30 AM75 °FClear.7 mph22%29.83 "Hg10 mi
2:00 AM75 °FClear.5 mph24%29.83 "Hg10 mi
1:30 AM77 °FClear.5 mph24%29.83 "Hg10 mi
1:00 AM77 °FClear.7 mph26%29.86 "Hg10 mi
12:30 AM77 °FClear.7 mph24%29.86 "Hg10 mi
12:00 AM79 °FClear.5 mph23%29.86 "Hg10 mi
11:30 PM
Sat, Jul 23
79 °FClear.5 mph20%29.86 "Hg10 mi
11:00 PM81 °FClear.9 mph17%29.86 "Hg10 mi
10:30 PM81 °FClear.12 mph17%29.86 "Hg10 mi
10:00 PM82 °FClear.7 mph16%29.86 "Hg10 mi
9:30 PM82 °FClear.12 mph16%29.86 "Hg10 mi
9:00 PM82 °FSunny.9 mph15%29.83 "Hg10 mi
8:30 PM84 °FSunny.14 mph13%29.83 "Hg10 mi
8:00 PM84 °FSunny.12 mph15%29.83 "Hg10 mi
7:30 PM88 °FSunny.14 mph12%29.83 "Hg10 mi
7:00 PM90 °FSunny.14 mph12%29.80 "Hg10 mi
6:30 PM93 °FSunny.14 mph10%29.80 "Hg10 mi
6:00 PM95 °FSunny.14 mph8%29.80 "Hg10 mi
5:30 PM95 °FSunny.9 mph7%29.80 "Hg10 mi
5:00 PM97 °FSunny.12 mph7%29.80 "Hg10 mi
4:30 PM97 °FSunny.16 mph7%29.83 "Hg10 mi
4:00 PM97 °FSunny.16 mph8%29.83 "Hg10 mi
3:30 PM97 °FSunny.18 mph8%29.83 "Hg10 mi
3:00 PM97 °FSunny.12 mph8%29.83 "Hg10 mi
2:30 PM97 °FSunny.16 mph9%29.83 "Hg10 mi
2:00 PM97 °FSunny.18 mph7%29.83 "Hg10 mi
1:30 PM97 °FSunny.18 mph7%29.83 "Hg10 mi
1:00 PM95 °FSunny.16 mph9%29.86 "Hg10 mi
12:30 PM93 °FSunny.9 mph10%29.86 "Hg10 mi
12:00 PM95 °FSunny.9 mph10%29.86 "Hg10 mi
11:30 AM93 °FSunny.5 mph10%29.89 "Hg10 mi
11:00 AM91 °FSunny.12 mph13%29.89 "Hg10 mi
10:30 AM88 °FSunny.9 mph13%29.89 "Hg10 mi
10:00 AM88 °FSunny.9 mph11%29.89 "Hg10 mi
9:30 AM88 °FSunny.5 mph13%29.89 "Hg10 mi
9:00 AM86 °FSunny.5 mph14%29.92 "Hg10 mi
8:30 AM84 °FSunny.5 mph15%29.92 "Hg10 mi
8:00 AM84 °FSunny.7 mph15%29.92 "Hg10 mi
7:30 AM81 °FSunny.5 mph23%29.92 "Hg10 mi
7:00 AM77 °FClear.7 mph28%29.92 "Hg10 mi
Weather by CustomWeather, © 2016

See weather overviewHow to use our weather pages